Regional Weather Roundup
Issued by NWS

Home | Current Version | Previous Version | Graphics & Text | Print | Product List | Glossary On
Versions: 1 2 3 4 5 6 7 8 9 10 11 12 13 14 15 16 17 18 19 20 21 22 23 24 25 26 27 28
000
ASUS45 KCYS 240410
RWRWY

WYOMING REGIONAL WEATHER ROUNDUP
NATIONAL WEATHER SERVICE CHEYENNE WY
1000 PM MDT TUE MAY 23 2017

NOTE:  "FAIR" INDICATES FEW OR NO CLOUDS BELOW 12,000 FEET
WITH NO SIGNIFICANT WEATHER AND/OR OBSTRUCTIONS TO VISIBILITY.

WYZ001-240500-
YELLOWSTONE NATIONAL PARK

CITY           SKY/WX    TMP DP  RH WIND       PRES   REMARKS
LK YELLOWSTONE   N/A     40  35  83 CALM      30.16S
W YELLOWSTONE  NOT AVBL

$$
WYZ002>013-054>058-071-098>099-240500-
NORTHERN WYOMING

CITY           SKY/WX    TMP DP  RH WIND       PRES   REMARKS
JACKSON        FAIR      54  36  50 W3        30.09S
CODY           FAIR      56  38  50 S7        29.95F
GREYBULL       FAIR      60  33  36 S8        29.91S
WORLAND        FAIR      55  35  47 SE10      29.92F
SHERIDAN       FAIR      50  42  74 S6        29.90F
BUFFALO        FAIR      53  38  56 S14       29.97F
GILLETTE       FAIR      44  39  82 S8        29.97F
HULETT         FAIR      52  36  54 SE8       29.99F
NEWCASTLE      FAIR      48  34  57 CALM      30.02S

$$
WYZ014>020-022>026-101>103-240500-
CENTRAL WYOMING

CITY           SKY/WX    TMP DP  RH WIND       PRES   REMARKS
BIG PINEY      FAIR      47  35  63 N12       30.13F
PINEDALE       FAIR      48  34  57 NW6       30.14S
DUBOIS         NOT AVBL
LANDER         FAIR      53  35  50 W5        30.01S
RIVERTON       FAIR      58  30  34 SE6       30.01F
CASPER         FAIR      45  41  86 CALM      30.03F
DOUGLAS        FAIR      47  38  71 SE5       30.04F

$$
WYZ021-027>030-104>119-240500-
SOUTHERN WYOMING

CITY           SKY/WX    TMP DP  RH WIND       PRES   REMARKS
EVANSTON       FAIR      53  35  50 SW8       30.18S
ROCK SPRINGS   FAIR      57  36  45 SW12      30.11S
RAWLINS        FAIR      46  28  49 CALM      30.12S
SARATOGA       FAIR      43  32  65 SW8       30.15S
LARAMIE        FAIR      43  31  62 CALM      30.14S
CHEYENNE       FAIR      46  32  58 NW5       30.11S
TORRINGTON     FAIR      46  34  62 E9        30.03S

$$




USA.gov is the U.S. government's official web portal to all federal, state and local government web resources and services.